Location: Mountain Grove
(34.0887°N, 86.6172°W)
Time: 00:22:08
(UTC+00:00)

ARIANE 5 R/B - Pass Details

Date: 14 July 2020
Orbit: 749 x 794 km, 98.6° (Epoch: 12 August)

Event Time Altitude Azimuth Distance (km) Brightness Sun altitude
Rises 09:35:27 0° 355° (N) 3,238 6.2 -13.1°
Reaches altitude 10° 09:38:14 10° 341° (NNW) 2,316 5.2 -12.7°
Maximum altitude 09:42:00 21° 293° (WNW) 1,673 4.0 -12.1°
Enters shadow 09:44:50 14° 253° (WSW) 2,065 4.1 -11.6°
